EXS36AM EGNT-LEMH

Flight info

Callsign EXS36AM
Flight time 2h 34m
Altitude 37000
Route GIRLI P18 GASKO P16 RIBEL UP16 CROFT UL612 HON DCT SITET UN859 SOPIL DCT BALAN DCT EVPOK DCT NARAK DCT GAI DCT LOMRA DCT ROCAN DCT GEANT DCT GIR DCT SALON DCT SULID N727 SARGO
Aircraft B738/M-SDE2E3FGHIRWXY/LB1

Departure

Time 2026-05-07 16:19
Airport Newcastle International Airport (EGNT)

Arrival

Time 2026-05-07 18:54
Airport Menorca Airport (LEMH)
Time Latitude Longitude Altitude Speed Heading
2026-05-07 15:53 55.03667 -1.70587 266 ft 0 kts 319°
2026-05-07 16:10 55.03667 -1.70586 266 ft 1 kts 319°
2026-05-07 16:10 55.03650 -1.70560 266 ft 4 kts 319°
2026-05-07 16:10 55.03633 -1.70535 266 ft 4 kts 328°
2026-05-07 16:11 55.03610 -1.70521 266 ft 4 kts 14°
2026-05-07 16:11 55.03594 -1.70543 266 ft 4 kts 82°
2026-05-07 16:11 55.03591 -1.70583 266 ft 1 kts 84°
2026-05-07 16:11 55.03591 -1.70584 266 ft 0 kts 84°
2026-05-07 16:14 55.03591 -1.70579 266 ft 2 kts 84°
2026-05-07 16:14 55.03594 -1.70528 266 ft 6 kts 84°
2026-05-07 16:14 55.03625 -1.70451 266 ft 12 kts 32°
2026-05-07 16:14 55.03714 -1.70432 266 ft 16 kts
2026-05-07 16:15 55.03780 -1.70314 265 ft 16 kts 95°
2026-05-07 16:15 55.03774 -1.70179 262 ft 17 kts 94°
2026-05-07 16:15 55.03776 -1.69969 260 ft 19 kts 83°
2026-05-07 16:15 55.03801 -1.69690 257 ft 26 kts 77°
2026-05-07 16:16 55.03891 -1.69292 253 ft 26 kts 65°
2026-05-07 16:16 55.03941 -1.69102 251 ft 25 kts 65°
2026-05-07 16:16 55.04011 -1.68837 249 ft 23 kts 65°
2026-05-07 16:16 55.04078 -1.68586 248 ft 22 kts 65°
2026-05-07 16:17 55.04143 -1.68342 247 ft 22 kts 65°
2026-05-07 16:17 55.04206 -1.68104 246 ft 21 kts 65°
2026-05-07 16:17 55.04267 -1.67875 246 ft 21 kts 64°
2026-05-07 16:17 55.04326 -1.67652 243 ft 20 kts 65°
2026-05-07 16:18 55.04330 -1.67491 241 ft 12 kts 97°
2026-05-07 16:18 55.04292 -1.67377 240 ft 12 kts 159°
2026-05-07 16:18 55.04219 -1.67382 241 ft 11 kts 226°
2026-05-07 16:18 55.04189 -1.67487 242 ft 10 kts 245°
2026-05-07 16:19 55.04099 -1.67823 246 ft 63 kts 246°
2026-05-07 16:19 55.03822 -1.68872 251 ft 126 kts 245°
2026-05-07 16:19 55.03390 -1.70484 455 ft 159 kts 243°
2026-05-07 16:19 55.02903 -1.72269 1113 ft 167 kts 243°
2026-05-07 16:20 55.02398 -1.74102 1964 ft 167 kts 243°
2026-05-07 16:20 55.01733 -1.75765 2632 ft 176 kts 216°
2026-05-07 16:20 55.00596 -1.76600 3373 ft 177 kts 200°
2026-05-07 16:20 54.99399 -1.77307 3900 ft 192 kts 201°
2026-05-07 16:21 54.98067 -1.78153 4118 ft 215 kts 201°
2026-05-07 16:21 54.96626 -1.79073 4555 ft 228 kts 201°
2026-05-07 16:21 54.95057 -1.80077 4891 ft 248 kts 201°
2026-05-07 16:21 54.93424 -1.81121 5657 ft 252 kts 201°
2026-05-07 16:22 54.91771 -1.82179 6423 ft 255 kts 201°
2026-05-07 16:22 54.90098 -1.83249 7220 ft 257 kts 201°
2026-05-07 16:22 54.88410 -1.84330 7942 ft 261 kts 201°
2026-05-07 16:22 54.86705 -1.85420 8715 ft 262 kts 201°
2026-05-07 16:23 54.84978 -1.86523 9468 ft 266 kts 201°
2026-05-07 16:23 54.83235 -1.87632 10209 ft 268 kts 200°
2026-05-07 16:23 54.81374 -1.88075 10868 ft 277 kts 176°
2026-05-07 16:23 54.79438 -1.87219 11113 ft 302 kts 161°
2026-05-07 16:24 54.77461 -1.85631 11337 ft 323 kts 157°
2026-05-07 16:24 54.75413 -1.83883 11829 ft 332 kts 157°
2026-05-07 16:24 54.73321 -1.82134 12522 ft 336 kts 158°
2026-05-07 16:24 54.71152 -1.80805 13200 ft 335 kts 175°
2026-05-07 16:25 54.68809 -1.80896 13969 ft 334 kts 191°
2026-05-07 16:25 54.66549 -1.81606 14635 ft 337 kts 192°
2026-05-07 16:25 54.64238 -1.82408 15293 ft 341 kts 192°
2026-05-07 16:25 54.61904 -1.83209 15981 ft 344 kts 192°
2026-05-07 16:26 54.59536 -1.83990 16661 ft 348 kts 191°
2026-05-07 16:26 54.57152 -1.84755 17334 ft 351 kts 191°
2026-05-07 16:26 54.54728 -1.85525 18002 ft 355 kts 191°
2026-05-07 16:26 54.52286 -1.86292 18619 ft 359 kts 191°
2026-05-07 16:27 54.49816 -1.87064 19200 ft 362 kts 191°
2026-05-07 16:27 54.47329 -1.87841 19768 ft 365 kts 191°
2026-05-07 16:27 54.44815 -1.88627 20312 ft 369 kts 191°
2026-05-07 16:27 54.42274 -1.89420 20882 ft 372 kts 191°
2026-05-07 16:28 54.39720 -1.90218 21469 ft 375 kts 191°
2026-05-07 16:28 54.37145 -1.91025 22025 ft 378 kts 191°
2026-05-07 16:28 54.34545 -1.91840 22565 ft 381 kts 191°
2026-05-07 16:28 54.31925 -1.92661 23107 ft 384 kts 191°
2026-05-07 16:29 54.29283 -1.93486 23626 ft 388 kts 191°
2026-05-07 16:29 54.26619 -1.94317 24063 ft 390 kts 191°
2026-05-07 16:29 54.23999 -1.95578 24487 ft 393 kts 202°
2026-05-07 16:29 54.21550 -1.97682 24914 ft 397 kts 211°
2026-05-07 16:30 54.19317 -2.00494 25285 ft 402 kts 220°
2026-05-07 16:30 54.17273 -2.03769 25702 ft 405 kts 222°
2026-05-07 16:30 54.15236 -2.07115 26119 ft 407 kts 222°
2026-05-07 16:30 54.13184 -2.10477 26511 ft 410 kts 222°
2026-05-07 16:31 54.11112 -2.13835 26924 ft 412 kts 221°
2026-05-07 16:31 54.09020 -2.17192 27357 ft 414 kts 221°
2026-05-07 16:31 54.06914 -2.20553 27691 ft 417 kts 221°
2026-05-07 16:31 54.04811 -2.23897 28023 ft 421 kts 221°
2026-05-07 16:32 54.02604 -2.27177 28369 ft 422 kts 214°
2026-05-07 16:32 54.00107 -2.29883 28739 ft 421 kts 206°
2026-05-07 16:32 53.97420 -2.31870 29098 ft 421 kts 199°
2026-05-07 16:32 53.94664 -2.33605 29414 ft 424 kts 198°
2026-05-07 16:33 53.91885 -2.35334 29704 ft 427 kts 198°
2026-05-07 16:33 53.89089 -2.37085 30045 ft 429 kts 198°
2026-05-07 16:33 53.86286 -2.38858 30339 ft 431 kts 198°
2026-05-07 16:33 53.83475 -2.40650 30635 ft 432 kts 198°
2026-05-07 16:34 53.80672 -2.42445 31031 ft 430 kts 198°
2026-05-07 16:34 53.77881 -2.44232 31440 ft 428 kts 198°
2026-05-07 16:34 53.75099 -2.46011 31806 ft 428 kts 198°
2026-05-07 16:34 53.72355 -2.47763 32148 ft 427 kts 198°
2026-05-07 16:35 53.69576 -2.49532 32492 ft 427 kts 198°
2026-05-07 16:35 53.66790 -2.51292 32800 ft 426 kts 196°
2026-05-07 16:35 53.63914 -2.52333 33094 ft 422 kts 181°
2026-05-07 16:35 53.60999 -2.52123 33473 ft 418 kts 170°
2026-05-07 16:36 53.58194 -2.50899 33818 ft 416 kts 158°
2026-05-07 16:36 53.55546 -2.48979 34124 ft 415 kts 155°
2026-05-07 16:36 53.52907 -2.46986 34338 ft 416 kts 156°
2026-05-07 16:36 53.50245 -2.45031 34520 ft 418 kts 156°
2026-05-07 16:37 53.47561 -2.43114 34738 ft 419 kts 157°
2026-05-07 16:37 53.44875 -2.41220 34984 ft 419 kts 157°
2026-05-07 16:37 53.42188 -2.39330 35190 ft 420 kts 157°
2026-05-07 16:37 53.39484 -2.37429 35374 ft 421 kts 157°
2026-05-07 16:38 53.36781 -2.35528 35597 ft 422 kts 158°
2026-05-07 16:38 53.34070 -2.33622 35810 ft 423 kts 158°
2026-05-07 16:38 53.31353 -2.31713 35990 ft 424 kts 158°
2026-05-07 16:38 53.28629 -2.29803 36168 ft 425 kts 158°
2026-05-07 16:39 53.25899 -2.27891 36367 ft 426 kts 158°
2026-05-07 16:39 53.23163 -2.25989 36559 ft 426 kts 158°
2026-05-07 16:39 53.20423 -2.24104 36694 ft 428 kts 158°
2026-05-07 16:39 53.17655 -2.22204 36822 ft 430 kts 158°
2026-05-07 16:40 53.14886 -2.20305 37017 ft 431 kts 159°
2026-05-07 16:40 53.09313 -2.16462 37025 ft 435 kts 158°
2026-05-07 16:41 53.03742 -2.12605 37010 ft 431 kts 158°
2026-05-07 16:41 52.98238 -2.08805 37012 ft 427 kts 159°
2026-05-07 16:42 52.92758 -2.05035 37020 ft 426 kts 159°
2026-05-07 16:42 52.87281 -2.01280 37025 ft 426 kts 159°
2026-05-07 16:43 52.81799 -1.97532 37027 ft 427 kts 159°
2026-05-07 16:43 52.76336 -1.93806 37027 ft 429 kts 159°
2026-05-07 16:44 52.70805 -1.90044 37020 ft 431 kts 159°
2026-05-07 16:44 52.65251 -1.86277 37030 ft 433 kts 159°
2026-05-07 16:45 52.59662 -1.82497 37024 ft 435 kts 159°
2026-05-07 16:45 52.54048 -1.78709 37029 ft 437 kts 159°
2026-05-07 16:46 52.48506 -1.74981 37013 ft 439 kts 159°
2026-05-07 16:46 52.42859 -1.71190 37026 ft 439 kts 159°
2026-05-07 16:47 52.37195 -1.67400 37019 ft 439 kts 159°
2026-05-07 16:47 52.31597 -1.63378 37020 ft 439 kts 156°
2026-05-07 16:48 52.26092 -1.59054 37030 ft 439 kts 156°
2026-05-07 16:48 52.20625 -1.54749 37045 ft 438 kts 156°
2026-05-07 16:49 52.15132 -1.50480 37047 ft 437 kts 156°
2026-05-07 16:49 52.09636 -1.46244 37040 ft 436 kts 156°
2026-05-07 16:50 52.04183 -1.42060 37042 ft 436 kts 156°
2026-05-07 16:50 51.98667 -1.37839 37017 ft 435 kts 157°
2026-05-07 16:51 51.93211 -1.33675 37024 ft 436 kts 157°
2026-05-07 16:51 51.87722 -1.29497 37021 ft 437 kts 157°
2026-05-07 16:52 51.82216 -1.25316 37022 ft 437 kts 157°
2026-05-07 16:52 51.76705 -1.21143 37016 ft 438 kts 157°
2026-05-07 16:53 51.71179 -1.16970 37024 ft 439 kts 157°
2026-05-07 16:53 51.65643 -1.12802 37021 ft 440 kts 157°
2026-05-07 16:54 51.60090 -1.08632 37023 ft 440 kts 157°
2026-05-07 16:54 51.54531 -1.04467 37017 ft 441 kts 157°
2026-05-07 16:55 51.48962 -1.00307 37023 ft 441 kts 158°
2026-05-07 16:55 51.43392 -0.96158 37025 ft 442 kts 158°
2026-05-07 16:56 51.37815 -0.92014 37037 ft 442 kts 158°
2026-05-07 16:56 51.29454 -0.85823 37042 ft 441 kts 158°
2026-05-07 16:57 51.23878 -0.81708 37055 ft 441 kts 158°
2026-05-07 16:57 51.18300 -0.77604 37045 ft 442 kts 158°
2026-05-07 16:58 51.12722 -0.73509 37045 ft 442 kts 158°
2026-05-07 16:58 51.07243 -0.69498 37054 ft 442 kts 158°
2026-05-07 16:59 51.01652 -0.65416 37049 ft 442 kts 158°
2026-05-07 16:59 50.96098 -0.61372 37049 ft 442 kts 158°
2026-05-07 17:00 50.90510 -0.57313 37048 ft 442 kts 158°
2026-05-07 17:00 50.84915 -0.53260 37048 ft 442 kts 158°
2026-05-07 17:01 50.79330 -0.49225 37049 ft 441 kts 158°
2026-05-07 17:01 50.73732 -0.45191 37050 ft 441 kts 158°
2026-05-07 17:02 50.68196 -0.41213 37049 ft 441 kts 158°
2026-05-07 17:02 50.62618 -0.37215 37044 ft 441 kts 158°
2026-05-07 17:03 50.57453 -0.33522 37055 ft 440 kts 158°
2026-05-07 17:03 50.52208 -0.29781 37054 ft 440 kts 158°
2026-05-07 17:04 50.47577 -0.26485 37051 ft 440 kts 158°
2026-05-07 17:04 50.42041 -0.22555 37043 ft 440 kts 158°
2026-05-07 17:05 50.35800 -0.18137 37045 ft 439 kts 158°
2026-05-07 17:05 50.31166 -0.14864 37047 ft 439 kts 159°
2026-05-07 17:06 50.25807 -0.11087 37046 ft 439 kts 159°
2026-05-07 17:06 50.20308 -0.07222 37047 ft 439 kts 159°
2026-05-07 17:07 50.15552 -0.03885 37040 ft 439 kts 159°
2026-05-07 17:07 50.10629 -0.00455 37040 ft 439 kts 160°
2026-05-07 17:08 50.04861 0.02223 37043 ft 435 kts 169°
2026-05-07 17:08 49.98966 0.04410 37045 ft 435 kts 169°
2026-05-07 17:09 49.93081 0.06648 37046 ft 435 kts 168°
2026-05-07 17:09 49.87202 0.08938 37030 ft 436 kts 168°
2026-05-07 17:10 49.81316 0.11238 37039 ft 436 kts 168°
2026-05-07 17:10 49.75469 0.13516 37037 ft 436 kts 168°
2026-05-07 17:11 49.69560 0.15811 37030 ft 436 kts 168°
2026-05-07 17:11 49.63704 0.18132 37024 ft 437 kts 168°
2026-05-07 17:12 49.57810 0.20536 37025 ft 437 kts 168°
2026-05-07 17:12 49.51922 0.22928 37018 ft 437 kts 168°
2026-05-07 17:13 49.46040 0.25302 37018 ft 437 kts 168°
2026-05-07 17:13 49.40150 0.27670 37024 ft 437 kts 168°
2026-05-07 17:14 49.34303 0.30017 37020 ft 437 kts 168°
2026-05-07 17:14 49.28431 0.32391 37011 ft 436 kts 167°
2026-05-07 17:15 49.22571 0.34862 37013 ft 436 kts 167°
2026-05-07 17:15 49.16726 0.37334 37006 ft 435 kts 167°
2026-05-07 17:16 49.10880 0.39790 37008 ft 435 kts 167°
2026-05-07 17:16 49.05066 0.42220 36999 ft 435 kts 167°
2026-05-07 17:17 48.99233 0.44651 36999 ft 434 kts 167°
2026-05-07 17:17 48.93394 0.47079 37007 ft 434 kts 167°
2026-05-07 17:18 48.87600 0.49482 37007 ft 434 kts 167°
2026-05-07 17:18 48.81752 0.51903 37010 ft 435 kts 167°
2026-05-07 17:19 48.75929 0.54273 37013 ft 435 kts 168°
2026-05-07 17:19 48.70056 0.56556 37014 ft 435 kts 168°
2026-05-07 17:20 48.64189 0.58832 37002 ft 436 kts 168°
2026-05-07 17:20 48.58321 0.61118 37015 ft 436 kts 168°
2026-05-07 17:21 48.52466 0.63395 37016 ft 436 kts 168°
2026-05-07 17:21 48.46592 0.65752 37017 ft 437 kts 168°
2026-05-07 17:22 48.40724 0.68154 37007 ft 437 kts 168°
2026-05-07 17:22 48.34851 0.70542 37011 ft 437 kts 168°
2026-05-07 17:23 48.28979 0.72915 37010 ft 437 kts 168°
2026-05-07 17:23 48.23144 0.75260 37014 ft 436 kts 168°
2026-05-07 17:24 48.17267 0.77575 37004 ft 436 kts 168°
2026-05-07 17:24 48.11390 0.79879 37003 ft 436 kts 168°
2026-05-07 17:25 48.05526 0.82178 37001 ft 435 kts 168°
2026-05-07 17:25 47.99701 0.84459 36992 ft 435 kts 168°
2026-05-07 17:26 47.93843 0.86749 36993 ft 435 kts 168°
2026-05-07 17:26 47.87989 0.89031 37002 ft 434 kts 168°
2026-05-07 17:27 47.82136 0.91306 37005 ft 434 kts 168°
2026-05-07 17:27 47.76289 0.93569 36991 ft 434 kts 169°
2026-05-07 17:28 47.70428 0.95831 36987 ft 434 kts 169°
2026-05-07 17:28 47.64619 0.98070 36984 ft 434 kts 169°
2026-05-07 17:29 47.58762 1.00323 36983 ft 434 kts 169°
2026-05-07 17:29 47.52915 1.02568 36987 ft 434 kts 169°
2026-05-07 17:30 47.47068 1.04807 36990 ft 434 kts 169°
2026-05-07 17:30 47.41168 1.06476 36981 ft 428 kts 182°
2026-05-07 17:31 47.35236 1.06328 36980 ft 426 kts 185°
2026-05-07 17:31 47.29296 1.06116 36985 ft 427 kts 184°
2026-05-07 17:32 47.23339 1.05959 36986 ft 427 kts 184°
2026-05-07 17:32 47.17445 1.05827 36974 ft 427 kts 184°
2026-05-07 17:33 47.11509 1.05698 36987 ft 426 kts 184°
2026-05-07 17:33 47.05569 1.05566 36983 ft 427 kts 184°
2026-05-07 17:34 46.99642 1.05405 36978 ft 426 kts 185°
2026-05-07 17:34 46.93719 1.05139 36974 ft 425 kts 185°
2026-05-07 17:35 46.87804 1.04864 36982 ft 425 kts 185°
2026-05-07 17:35 46.81894 1.04602 36981 ft 425 kts 185°
2026-05-07 17:36 46.75991 1.04347 36977 ft 424 kts 185°
2026-05-07 17:36 46.70129 1.04095 36972 ft 424 kts 185°
2026-05-07 17:37 46.64232 1.03841 36974 ft 424 kts 185°
2026-05-07 17:37 46.58319 1.03588 36972 ft 424 kts 185°
2026-05-07 17:38 46.52425 1.03396 36963 ft 425 kts 181°
2026-05-07 17:38 46.46561 1.04839 36981 ft 429 kts 171°
2026-05-07 17:39 46.40743 1.06863 36968 ft 430 kts 170°
2026-05-07 17:39 46.34930 1.08859 36960 ft 430 kts 171°
2026-05-07 17:40 46.29141 1.10803 36966 ft 429 kts 171°
2026-05-07 17:40 46.23319 1.12740 36965 ft 430 kts 171°
2026-05-07 17:41 46.17451 1.14685 36961 ft 430 kts 171°
2026-05-07 17:41 46.11657 1.16602 36959 ft 430 kts 171°
2026-05-07 17:42 46.05828 1.18527 36967 ft 429 kts 171°
2026-05-07 17:42 46.00002 1.20447 36959 ft 429 kts 171°
2026-05-07 17:43 45.94187 1.22359 36965 ft 429 kts 171°
2026-05-07 17:43 45.88370 1.24268 36965 ft 428 kts 171°
2026-05-07 17:44 45.82560 1.26170 36963 ft 428 kts 171°
2026-05-07 17:44 45.76754 1.28068 36967 ft 428 kts 171°
2026-05-07 17:45 45.70984 1.29949 36964 ft 428 kts 171°
2026-05-07 17:45 45.65180 1.31838 36958 ft 427 kts 171°
2026-05-07 17:46 45.59383 1.33720 36957 ft 427 kts 171°
2026-05-07 17:46 45.53586 1.35599 36957 ft 427 kts 171°
2026-05-07 17:47 45.47791 1.37473 36955 ft 427 kts 171°
2026-05-07 17:47 45.41994 1.39342 36958 ft 427 kts 171°
2026-05-07 17:48 45.36198 1.41208 36956 ft 427 kts 171°
2026-05-07 17:48 45.30403 1.43071 36960 ft 427 kts 171°
2026-05-07 17:49 45.24610 1.44929 36961 ft 427 kts 171°
2026-05-07 17:49 45.18860 1.46770 36967 ft 427 kts 171°
2026-05-07 17:50 45.13061 1.48622 36964 ft 427 kts 171°
2026-05-07 17:50 45.07266 1.50470 36969 ft 427 kts 171°
2026-05-07 17:51 45.01470 1.52314 36967 ft 427 kts 171°
2026-05-07 17:51 44.95672 1.54155 36952 ft 427 kts 171°
2026-05-07 17:52 44.89866 1.55994 36964 ft 427 kts 171°
2026-05-07 17:52 44.84059 1.57830 36957 ft 428 kts 171°
2026-05-07 17:53 44.78247 1.59663 36959 ft 428 kts 171°
2026-05-07 17:53 44.72423 1.61497 36954 ft 428 kts 171°
2026-05-07 17:54 44.66650 1.63312 36956 ft 428 kts 171°
2026-05-07 17:54 44.60832 1.65136 36948 ft 428 kts 171°
2026-05-07 17:55 44.55023 1.66954 36948 ft 427 kts 171°
2026-05-07 17:55 44.49214 1.68768 36951 ft 427 kts 171°
2026-05-07 17:56 44.43449 1.70566 36961 ft 427 kts 171°
2026-05-07 17:56 44.37641 1.72373 36944 ft 427 kts 171°
2026-05-07 17:57 44.32821 1.73870 36944 ft 426 kts 171°
2026-05-07 17:57 44.27022 1.75546 36949 ft 425 kts 174°
2026-05-07 17:58 44.21144 1.76818 36943 ft 424 kts 175°
2026-05-07 17:58 44.15344 1.78036 36944 ft 424 kts 175°
2026-05-07 17:59 44.09507 1.79303 36938 ft 425 kts 175°
2026-05-07 17:59 44.03671 1.80587 36943 ft 425 kts 175°
2026-05-07 18:00 43.97829 1.81868 36934 ft 425 kts 175°
2026-05-07 18:00 43.91981 1.82883 36944 ft 422 kts 179°
2026-05-07 18:01 43.86118 1.83403 36942 ft 422 kts 180°
2026-05-07 18:01 43.80255 1.83900 36938 ft 422 kts 180°
2026-05-07 18:02 43.71456 1.84726 36946 ft 422 kts 180°
2026-05-07 18:03 43.65586 1.85295 36941 ft 423 kts 180°
2026-05-07 18:03 43.59744 1.85862 36937 ft 423 kts 180°
2026-05-07 18:04 43.53877 1.86428 36946 ft 423 kts 180°
2026-05-07 18:04 43.48001 1.86994 36925 ft 423 kts 180°
2026-05-07 18:05 43.42114 1.87560 36932 ft 423 kts 180°
2026-05-07 18:05 43.36234 1.88124 36924 ft 423 kts 180°
2026-05-07 18:06 43.30365 1.88687 36922 ft 422 kts 180°
2026-05-07 18:06 43.24535 1.89248 36931 ft 422 kts 180°
2026-05-07 18:07 43.18677 1.89811 36932 ft 422 kts 180°
2026-05-07 18:07 43.12816 1.90373 36926 ft 422 kts 180°
2026-05-07 18:08 43.06964 1.90933 36922 ft 422 kts 180°
2026-05-07 18:08 43.01114 1.91492 36930 ft 420 kts 181°
2026-05-07 18:09 42.95293 1.92047 36941 ft 419 kts 181°
2026-05-07 18:09 42.89490 1.92599 36942 ft 417 kts 181°
2026-05-07 18:10 42.83705 1.93148 36956 ft 416 kts 181°
2026-05-07 18:10 42.77970 1.93692 36945 ft 415 kts 181°
2026-05-07 18:11 42.72214 1.94236 36958 ft 414 kts 181°
2026-05-07 18:11 42.66593 1.96238 36983 ft 427 kts 160°
2026-05-07 18:11 42.63996 1.98264 36956 ft 436 kts 149°
2026-05-07 18:12 42.61615 2.00857 36967 ft 439 kts 146°
2026-05-07 18:12 42.56955 2.06236 36946 ft 439 kts 146°
2026-05-07 18:13 42.52304 2.11536 36969 ft 437 kts 146°
2026-05-07 18:13 42.47615 2.16785 36969 ft 437 kts 147°
2026-05-07 18:14 42.42924 2.22017 36974 ft 437 kts 147°
2026-05-07 18:14 42.38222 2.27265 36958 ft 438 kts 147°
2026-05-07 18:15 42.33520 2.32514 36975 ft 438 kts 147°
2026-05-07 18:15 42.28809 2.37761 36977 ft 439 kts 147°
2026-05-07 18:16 42.24085 2.43012 36972 ft 440 kts 147°
2026-05-07 18:16 42.19347 2.48267 36954 ft 441 kts 147°
2026-05-07 18:17 42.14646 2.53472 36974 ft 440 kts 147°
2026-05-07 18:17 42.09916 2.58699 36973 ft 440 kts 147°
2026-05-07 18:18 42.05181 2.63920 36972 ft 440 kts 147°
2026-05-07 18:18 42.00436 2.69143 36945 ft 440 kts 147°
2026-05-07 18:19 41.95705 2.74341 36956 ft 440 kts 147°
2026-05-07 18:19 41.90928 2.79416 36966 ft 436 kts 150°
2026-05-07 18:20 41.85993 2.84119 36970 ft 434 kts 152°
2026-05-07 18:20 41.81039 2.88772 36971 ft 434 kts 151°
2026-05-07 18:21 41.76109 2.93446 36968 ft 434 kts 151°
2026-05-07 18:21 41.71309 2.98031 36946 ft 411 kts 151°
2026-05-07 18:21 41.69020 3.00220 36946 ft 397 kts 152°
2026-05-07 18:22 41.66838 3.02300 36947 ft 384 kts 152°
2026-05-07 18:22 41.62464 3.06437 36958 ft 390 kts 152°
2026-05-07 18:23 41.57984 3.10667 36984 ft 401 kts 152°
2026-05-07 18:23 41.53408 3.15003 36974 ft 405 kts 152°
2026-05-07 18:24 41.48814 3.19314 36949 ft 398 kts 153°
2026-05-07 18:24 41.46509 3.21283 36762 ft 389 kts 155°
2026-05-07 18:24 41.44209 3.23154 36218 ft 390 kts 156°
2026-05-07 18:24 41.41854 3.25036 35400 ft 400 kts 156°
2026-05-07 18:25 41.39468 3.26950 34958 ft 398 kts 156°
2026-05-07 18:25 41.37114 3.28857 34702 ft 392 kts 156°
2026-05-07 18:25 41.34837 3.30715 34454 ft 386 kts 156°
2026-05-07 18:25 41.32560 3.32573 34142 ft 382 kts 156°
2026-05-07 18:26 41.30303 3.34415 33798 ft 378 kts 156°
2026-05-07 18:26 41.28046 3.36256 33342 ft 371 kts 156°
2026-05-07 18:26 41.25896 3.38007 32666 ft 369 kts 156°
2026-05-07 18:26 41.23704 3.39788 31927 ft 369 kts 155°
2026-05-07 18:27 41.21488 3.41589 31253 ft 367 kts 154°
2026-05-07 18:27 41.19355 3.43323 30671 ft 364 kts 154°
2026-05-07 18:27 41.17212 3.45067 30114 ft 361 kts 153°
2026-05-07 18:27 41.15771 3.46247 29671 ft 359 kts 153°
2026-05-07 18:28 41.12968 3.48545 28764 ft 356 kts 153°
2026-05-07 18:28 41.10866 3.50267 28097 ft 353 kts 153°
2026-05-07 18:28 41.08788 3.51967 27454 ft 351 kts 153°
2026-05-07 18:28 41.06736 3.53643 26802 ft 349 kts 153°
2026-05-07 18:29 41.05117 3.54960 26268 ft 350 kts 152°
2026-05-07 18:29 41.03377 3.56370 25709 ft 349 kts 152°
2026-05-07 18:29 41.01292 3.58055 25237 ft 351 kts 152°
2026-05-07 18:29 40.99214 3.59735 24936 ft 348 kts 152°
2026-05-07 18:30 40.97157 3.61398 24638 ft 344 kts 152°
2026-05-07 18:30 40.95143 3.63025 24273 ft 344 kts 152°
2026-05-07 18:30 40.93100 3.64672 23903 ft 344 kts 152°
2026-05-07 18:30 40.91064 3.66315 23535 ft 343 kts 152°
2026-05-07 18:31 40.89032 3.67953 23148 ft 341 kts 151°
2026-05-07 18:31 40.87007 3.69585 22820 ft 338 kts 151°
2026-05-07 18:31 40.85015 3.71189 22492 ft 335 kts 151°
2026-05-07 18:31 40.83032 3.72785 22190 ft 331 kts 151°
2026-05-07 18:32 40.81081 3.74354 21899 ft 327 kts 151°
2026-05-07 18:32 40.79142 3.75912 21539 ft 325 kts 151°
2026-05-07 18:32 40.77207 3.77465 21194 ft 323 kts 151°
2026-05-07 18:32 40.75291 3.79002 20890 ft 320 kts 151°
2026-05-07 18:33 40.73394 3.80523 20578 ft 318 kts 151°
2026-05-07 18:33 40.71511 3.82032 20249 ft 316 kts 150°
2026-05-07 18:33 40.69641 3.83529 19945 ft 314 kts 150°
2026-05-07 18:33 40.67785 3.85013 19612 ft 312 kts 150°
2026-05-07 18:34 40.65949 3.86482 19299 ft 310 kts 150°
2026-05-07 18:34 40.64112 3.87950 18989 ft 308 kts 150°
2026-05-07 18:34 40.62278 3.89414 18690 ft 307 kts 150°
2026-05-07 18:34 40.60437 3.90885 18375 ft 305 kts 150°
2026-05-07 18:35 40.58651 3.92309 18043 ft 304 kts 150°
2026-05-07 18:35 40.56848 3.93747 17698 ft 302 kts 150°
2026-05-07 18:35 40.55056 3.95175 17324 ft 301 kts 150°
2026-05-07 18:35 40.53260 3.96604 16979 ft 300 kts 150°
2026-05-07 18:36 40.51474 3.98025 16630 ft 299 kts 149°
2026-05-07 18:36 40.49672 3.99357 16275 ft 298 kts 158°
2026-05-07 18:36 40.47714 4.00167 16035 ft 291 kts 165°
2026-05-07 18:36 40.45780 4.00823 16026 ft 283 kts 166°
2026-05-07 18:37 40.43893 4.01455 16105 ft 274 kts 166°
2026-05-07 18:37 40.42074 4.02072 16011 ft 265 kts 166°
2026-05-07 18:37 40.40300 4.02681 15758 ft 263 kts 165°
2026-05-07 18:37 40.38506 4.03303 15209 ft 272 kts 164°
2026-05-07 18:38 40.36609 4.03967 14475 ft 290 kts 164°
2026-05-07 18:38 40.34650 4.04654 14115 ft 291 kts 164°
2026-05-07 18:38 40.32722 4.05333 13859 ft 288 kts 164°
2026-05-07 18:38 40.30770 4.06021 13574 ft 286 kts 163°
2026-05-07 18:39 40.28873 4.06690 13195 ft 286 kts 164°
2026-05-07 18:39 40.26932 4.07376 12935 ft 285 kts 163°
2026-05-07 18:39 40.25041 4.08043 12686 ft 286 kts 164°
2026-05-07 18:39 40.23121 4.08721 12433 ft 285 kts 163°
2026-05-07 18:40 40.21206 4.09396 12181 ft 283 kts 163°
2026-05-07 18:40 40.19310 4.10065 11931 ft 282 kts 163°
2026-05-07 18:40 40.17415 4.10733 11692 ft 281 kts 163°
2026-05-07 18:40 40.15525 4.11399 11459 ft 281 kts 163°
2026-05-07 18:41 40.13638 4.12063 11214 ft 281 kts 163°
2026-05-07 18:41 40.11775 4.12718 10967 ft 280 kts 163°
2026-05-07 18:41 40.09884 4.13339 10724 ft 281 kts 170°
2026-05-07 18:41 40.07949 4.12985 10459 ft 288 kts 205°
2026-05-07 18:42 40.06461 4.11261 10251 ft 291 kts 234°
2026-05-07 18:42 40.05566 4.08929 10177 ft 286 kts 243°
2026-05-07 18:42 40.04638 4.06600 9933 ft 290 kts 237°
2026-05-07 18:42 40.03520 4.04415 9673 ft 289 kts 231°
2026-05-07 18:43 40.02234 4.02424 9417 ft 286 kts 224°
2026-05-07 18:43 40.00818 4.00636 9156 ft 282 kts 219°
2026-05-07 18:43 39.99294 3.99035 8901 ft 278 kts 213°
2026-05-07 18:43 39.97705 3.97644 8669 ft 275 kts 209°
2026-05-07 18:44 39.96030 3.96434 8423 ft 272 kts 204°
2026-05-07 18:44 39.94330 3.95448 8201 ft 268 kts 199°
2026-05-07 18:44 39.92560 3.94653 7959 ft 266 kts 193°
2026-05-07 18:44 39.90779 3.94059 7726 ft 263 kts 190°
2026-05-07 18:45 39.88996 3.93545 7491 ft 261 kts 187°
2026-05-07 18:45 39.87207 3.93283 7260 ft 258 kts 179°
2026-05-07 18:45 39.85422 3.93313 7035 ft 256 kts 174°
2026-05-07 18:45 39.83657 3.93557 6808 ft 254 kts 169°
2026-05-07 18:46 39.81925 3.93966 6589 ft 253 kts 165°
2026-05-07 18:46 39.80785 3.94325 6446 ft 253 kts 163°
2026-05-07 18:46 39.79111 3.94999 6220 ft 252 kts 159°
2026-05-07 18:46 39.76974 3.96150 5890 ft 251 kts 152°
2026-05-07 18:47 39.75430 3.97217 5658 ft 250 kts 148°
2026-05-07 18:47 39.73969 3.98435 5432 ft 249 kts 143°
2026-05-07 18:47 39.73026 3.99341 5290 ft 249 kts 140°
2026-05-07 18:47 39.71302 4.01294 4987 ft 248 kts 135°
2026-05-07 18:48 39.70491 4.02369 4842 ft 247 kts 131°
2026-05-07 18:48 39.69389 4.04035 4628 ft 244 kts 127°
2026-05-07 18:48 39.68390 4.05811 4380 ft 241 kts 123°
2026-05-07 18:48 39.67519 4.07641 4177 ft 238 kts 119°
2026-05-07 18:49 39.66762 4.09543 3965 ft 235 kts 114°
2026-05-07 18:49 39.66125 4.11482 3756 ft 232 kts 110°
2026-05-07 18:49 39.65605 4.13449 3558 ft 228 kts 105°
2026-05-07 18:49 39.65592 4.15458 3331 ft 228 kts 71°
2026-05-07 18:50 39.66590 4.17033 3142 ft 232 kts 33°
2026-05-07 18:50 39.68094 4.17783 2941 ft 233 kts 21°
2026-05-07 18:50 39.69654 4.18359 2672 ft 230 kts 17°
2026-05-07 18:50 39.71176 4.18756 2494 ft 217 kts 14°
2026-05-07 18:51 39.72628 4.19056 2292 ft 205 kts 13°
2026-05-07 18:51 39.74003 4.19335 2111 ft 193 kts 13°
2026-05-07 18:51 39.75296 4.19601 1924 ft 183 kts 13°
2026-05-07 18:51 39.76549 4.19861 1770 ft 183 kts 13°
2026-05-07 18:52 39.77787 4.20117 1613 ft 176 kts 14°
2026-05-07 18:52 39.78961 4.20358 1537 ft 167 kts 14°
2026-05-07 18:52 39.80088 4.20592 1355 ft 156 kts 13°
2026-05-07 18:52 39.81127 4.20806 1118 ft 147 kts 13°
2026-05-07 18:53 39.82114 4.21011 912 ft 140 kts 13°
2026-05-07 18:53 39.83076 4.21212 740 ft 144 kts 13°
2026-05-07 18:53 39.84033 4.21418 588 ft 135 kts 11°
2026-05-07 18:53 39.84951 4.21599 364 ft 134 kts 11°
2026-05-07 18:54 39.85833 4.21778 297 ft 106 kts
2026-05-07 18:54 39.86277 4.21869 295 ft 25 kts
2026-05-07 18:54 39.86394 4.21894 297 ft 20 kts 10°
2026-05-07 18:54 39.86552 4.21944 302 ft 25 kts 40°
2026-05-07 18:55 39.86560 4.22101 297 ft 5 kts 99°
2026-05-07 18:55 39.86554 4.22147 294 ft 5 kts 99°
2026-05-07 18:55 39.86549 4.22193 295 ft 5 kts 98°
2026-05-07 18:55 39.86542 4.22256 296 ft 10 kts 98°
2026-05-07 18:56 39.86492 4.22322 294 ft 13 kts 181°
2026-05-07 18:56 39.86426 4.22349 298 ft 8 kts 95°
2026-05-07 18:56 39.86422 4.22391 297 ft 1 kts 99°
2026-05-07 18:56 39.86422 4.22392 296 ft 0 kts 99°